Tracking 21473 objects as of 18-Sep-2020
HD Live streaming from Space Station
objects crossing your sky now

COSMOS 1771

Track COSMOS 1771 now!
10-day predictions
COSMOS 1771 is classified as:


NORAD ID: 16917
Int'l Code: 1986-062A
Perigee: 912.6 km
Apogee: 1,011.6 km
Inclination: 65.0 °
Period: 104.2 minutes
Semi major axis: 7333 km
RCS: 2.6102 m2 (large)
Launch date: August 20, 1986
Source: Commonwealth of Independent States (former USSR) (CIS)
Launch site: TYURATAM MISSILE AND SPACE COMPLEX (TTMTR)
aabbcc
Your satellite tracking list
Your tracking list is empty




NASA's NSSDC Master Catalog

Two Line Element Set (TLE):
1 16917U 86062A   20261.80487862 -.00000084 +00000-0 +44019-5 0  9996
2 16917 064.9853 016.5603 0067485 265.9053 093.4291 13.82510584721670
Source of the keplerian elements: AFSPC